Вернуться в каталог

NAVSTAR 79

USA 304

АктивенНавигацияHEO
NORAD 45854·PAYLOAD·🇺🇸 United States

Запущен Jun 30, 2020 с Cape Canaveral Space Force Station

Loading…

Ближайшие Пролёты (ближайшие 24 часа)

TLE

СвежийSource: CelesTrak SupGP

Эпоха: Sep 17, 2026, 16:38 UTC

1 45854C 20041A   26260.69312500  .00000000  00000+0  00000+0 0  2604
2 45854  56.7264  25.3616 0068091 206.0199 311.6132  2.00573798    11

Отслеживайте NAVSTAR 79 в реальном времени с AllMySat

Download on the App Store